GAP2347 RPVM-RPVP

Flight info

Callsign GAP2347
Flight time 0h 38m
Altitude 36000
Route KEVAN4N KEVAN TR2 BCD TR6 IOO W17 ZENNY ZENNY2W
Aircraft A320/M-SDE3FGHIRWY/LB1

Departure

Time 2026-04-26 13:35
Airport Mactan Cebu International Airport (RPVM)

Arrival

Time 2026-04-26 14:13
Airport Puerto Princesa International Airport / PAF Antonio Bautista Air Base (RPVP)
Time Latitude Longitude Altitude Speed Heading
2026-04-26 13:11 10.31098 123.97772 35 ft 0 kts 45°
2026-04-26 13:12 10.31098 123.97771 34 ft 0 kts 45°
2026-04-26 13:28 10.31086 123.97759 37 ft 4 kts 45°
2026-04-26 13:28 10.31071 123.97743 37 ft 4 kts 68°
2026-04-26 13:28 10.31072 123.97720 37 ft 4 kts 124°
2026-04-26 13:29 10.31084 123.97706 33 ft 0 kts 134°
2026-04-26 13:30 10.31062 123.97728 36 ft 10 kts 134°
2026-04-26 13:30 10.30991 123.97765 37 ft 12 kts 198°
2026-04-26 13:31 10.30928 123.97710 37 ft 11 kts 225°
2026-04-26 13:31 10.30868 123.97650 36 ft 17 kts 224°
2026-04-26 13:31 10.30776 123.97558 35 ft 20 kts 224°
2026-04-26 13:31 10.30669 123.97450 37 ft 23 kts 225°
2026-04-26 13:32 10.30547 123.97329 37 ft 26 kts 225°
2026-04-26 13:32 10.30423 123.97204 37 ft 24 kts 224°
2026-04-26 13:32 10.30298 123.97079 35 ft 23 kts 225°
2026-04-26 13:32 10.30185 123.96964 37 ft 25 kts 225°
2026-04-26 13:33 10.30054 123.96834 36 ft 28 kts 225°
2026-04-26 13:33 10.29927 123.96710 37 ft 15 kts 214°
2026-04-26 13:33 10.29843 123.96740 37 ft 15 kts 133°
2026-04-26 13:33 10.29765 123.96822 36 ft 16 kts 131°
2026-04-26 13:34 10.29717 123.96896 36 ft 9 kts 76°
2026-04-26 13:34 10.29772 123.96954 36 ft 18 kts 44°
2026-04-26 13:34 10.30042 123.97225 36 ft 89 kts 44°
2026-04-26 13:34 10.30395 123.97578 38 ft 126 kts 45°
2026-04-26 13:35 10.31394 123.98590 334 ft 161 kts 45°
2026-04-26 13:35 10.32181 123.99378 1052 ft 159 kts 45°
2026-04-26 13:35 10.32963 124.00166 1778 ft 158 kts 45°
2026-04-26 13:35 10.33741 124.00952 2424 ft 158 kts 46°
2026-04-26 13:36 10.34615 124.01622 3049 ft 161 kts 20°
2026-04-26 13:36 10.35781 124.01638 3472 ft 183 kts 345°
2026-04-26 13:36 10.36973 124.00952 3712 ft 210 kts 331°
2026-04-26 13:36 10.38262 124.00104 3982 ft 231 kts 331°
2026-04-26 13:37 10.39671 123.99182 4335 ft 250 kts 330°
2026-04-26 13:37 10.41186 123.98188 4807 ft 270 kts 330°
2026-04-26 13:37 10.42799 123.97131 5472 ft 280 kts 330°
2026-04-26 13:37 10.44455 123.96051 6298 ft 285 kts 330°
2026-04-26 13:38 10.46135 123.94960 7106 ft 288 kts 330°
2026-04-26 13:38 10.47835 123.93857 7935 ft 291 kts 330°
2026-04-26 13:38 10.49556 123.92745 8728 ft 295 kts 330°
2026-04-26 13:38 10.51296 123.91619 9501 ft 298 kts 330°
2026-04-26 13:39 10.53060 123.90478 10188 ft 306 kts 330°
2026-04-26 13:39 10.54929 123.89270 10426 ft 330 kts 329°
2026-04-26 13:39 10.56800 123.87826 10859 ft 345 kts 317°
2026-04-26 13:39 10.58320 123.85911 11506 ft 352 kts 303°
2026-04-26 13:40 10.59354 123.83638 12184 ft 358 kts 288°
2026-04-26 13:40 10.59836 123.81139 12862 ft 363 kts 278°
2026-04-26 13:40 10.60178 123.78586 13552 ft 366 kts 279°
2026-04-26 13:40 10.60527 123.76014 14156 ft 369 kts 279°
2026-04-26 13:41 10.60879 123.73419 14738 ft 372 kts 279°
2026-04-26 13:41 10.61232 123.70837 15315 ft 375 kts 279°
2026-04-26 13:41 10.61597 123.68201 15903 ft 378 kts 279°
2026-04-26 13:41 10.61961 123.65549 16494 ft 380 kts 279°
2026-04-26 13:42 10.62326 123.62883 17074 ft 382 kts 278°
2026-04-26 13:42 10.62691 123.60192 17643 ft 385 kts 278°
2026-04-26 13:42 10.63056 123.57483 18193 ft 389 kts 278°
2026-04-26 13:42 10.63428 123.54749 18684 ft 391 kts 278°
2026-04-26 13:43 10.63804 123.51997 19155 ft 394 kts 278°
2026-04-26 13:43 10.64180 123.49233 19649 ft 396 kts 278°
2026-04-26 13:43 10.64553 123.46443 20127 ft 399 kts 278°
2026-04-26 13:43 10.64926 123.43633 20611 ft 402 kts 278°
2026-04-26 13:44 10.65306 123.40804 21044 ft 405 kts 278°
2026-04-26 13:44 10.65693 123.37962 21517 ft 407 kts 278°
2026-04-26 13:44 10.66082 123.35098 21991 ft 410 kts 278°
2026-04-26 13:44 10.66474 123.32201 22213 ft 418 kts 278°
2026-04-26 13:45 10.66871 123.29233 22356 ft 429 kts 278°
2026-04-26 13:45 10.67277 123.26191 22479 ft 439 kts 278°
2026-04-26 13:45 10.67898 123.23125 22608 ft 447 kts 286°
2026-04-26 13:45 10.68942 123.20162 22733 ft 455 kts 294°
2026-04-26 13:46 10.70326 123.17245 22865 ft 462 kts 296°
2026-04-26 13:46 10.71741 123.14289 22993 ft 468 kts 296°
2026-04-26 13:46 10.73171 123.11282 23124 ft 474 kts 296°
2026-04-26 13:46 10.74607 123.08248 23252 ft 479 kts 296°
2026-04-26 13:47 10.76050 123.05182 23380 ft 483 kts 294°
2026-04-26 13:47 10.77225 123.01965 23523 ft 486 kts 285°
2026-04-26 13:47 10.77919 122.98602 23714 ft 488 kts 277°
2026-04-26 13:47 10.78310 122.95164 23919 ft 489 kts 276°
2026-04-26 13:48 10.78698 122.91729 24124 ft 490 kts 276°
2026-04-26 13:48 10.79093 122.88286 24326 ft 491 kts 276°
2026-04-26 13:48 10.79487 122.84833 24581 ft 490 kts 275°
2026-04-26 13:48 10.79452 122.81382 24877 ft 488 kts 264°
2026-04-26 13:49 10.79107 122.77957 25186 ft 486 kts 264°
2026-04-26 13:49 10.78755 122.74542 25487 ft 486 kts 264°
2026-04-26 13:49 10.78399 122.71124 25758 ft 486 kts 264°
2026-04-26 13:49 10.78046 122.67713 26057 ft 485 kts 264°
2026-04-26 13:50 10.77694 122.64301 26377 ft 484 kts 264°
2026-04-26 13:50 10.77345 122.60903 26719 ft 482 kts 263°
2026-04-26 13:50 10.77000 122.57554 27073 ft 481 kts 264°
2026-04-26 13:50 10.76650 122.54172 27414 ft 479 kts 263°
2026-04-26 13:51 10.76303 122.50801 27811 ft 477 kts 263°
2026-04-26 13:51 10.75959 122.47454 28197 ft 475 kts 263°
2026-04-26 13:51 10.75618 122.44114 28550 ft 475 kts 263°
2026-04-26 13:51 10.75275 122.40780 28916 ft 473 kts 263°
2026-04-26 13:52 10.74932 122.37457 29340 ft 471 kts 263°
2026-04-26 13:52 10.74588 122.34149 29718 ft 470 kts 263°
2026-04-26 13:52 10.74241 122.30846 30062 ft 469 kts 263°
2026-04-26 13:52 10.73895 122.27553 30397 ft 467 kts 263°
2026-04-26 13:53 10.73551 122.24271 30721 ft 466 kts 263°
2026-04-26 13:53 10.73213 122.20995 31019 ft 466 kts 263°
2026-04-26 13:53 10.72875 122.17718 31281 ft 466 kts 263°
2026-04-26 13:53 10.72535 122.14438 31592 ft 466 kts 263°
2026-04-26 13:54 10.72192 122.11161 31909 ft 465 kts 262°
2026-04-26 13:54 10.71681 122.07923 32193 ft 464 kts 255°
2026-04-26 13:54 10.70800 122.04777 32475 ft 463 kts 252°
2026-04-26 13:55 10.69290 121.99564 33028 ft 462 kts 252°
2026-04-26 13:55 10.68383 121.96427 33347 ft 461 kts 252°
2026-04-26 13:55 10.66293 121.89169 34071 ft 459 kts 252°
2026-04-26 13:56 10.65393 121.86049 34365 ft 458 kts 252°
2026-04-26 13:56 10.64498 121.82946 34689 ft 457 kts 252°
2026-04-26 13:56 10.63908 121.80896 34880 ft 456 kts 252°
2026-04-26 13:56 10.63017 121.77799 35196 ft 454 kts 252°
2026-04-26 13:57 10.62132 121.74731 35520 ft 452 kts 252°
2026-04-26 13:57 10.61249 121.71672 35803 ft 451 kts 252°
2026-04-26 13:57 10.60367 121.68612 35877 ft 452 kts 252°
2026-04-26 13:58 10.58583 121.62441 35897 ft 457 kts 252°
2026-04-26 13:58 10.56788 121.56239 35898 ft 458 kts 252°
2026-04-26 13:59 10.54992 121.50027 35899 ft 458 kts 252°
2026-04-26 13:59 10.53199 121.43827 35897 ft 457 kts 252°
2026-04-26 14:00 10.49602 121.31428 35774 ft 458 kts 252°
2026-04-26 14:00 10.49007 121.29373 35618 ft 457 kts 252°
2026-04-26 14:01 10.47815 121.25262 35309 ft 458 kts 252°
2026-04-26 14:01 10.46908 121.22152 35076 ft 459 kts 252°
2026-04-26 14:01 10.45999 121.19040 34845 ft 460 kts 252°
2026-04-26 14:01 10.45086 121.15919 34616 ft 461 kts 252°
2026-04-26 14:02 10.43085 121.09052 34129 ft 463 kts 252°
2026-04-26 14:02 10.39420 120.96436 33167 ft 466 kts 252°
2026-04-26 14:02 10.35712 120.83723 32193 ft 469 kts 252°
2026-04-26 14:02 10.32028 120.71132 31296 ft 472 kts 252°
2026-04-26 14:03 10.28235 120.58132 30396 ft 474 kts 252°
2026-04-26 14:03 10.24497 120.45454 29423 ft 476 kts 252°
2026-04-26 14:03 10.20671 120.32507 28386 ft 480 kts 252°
2026-04-26 14:03 10.16781 120.19459 27381 ft 483 kts 252°
2026-04-26 14:04 10.12894 120.06344 26431 ft 486 kts 252°
2026-04-26 14:04 10.08933 119.93104 24292 ft 505 kts 253°
2026-04-26 14:04 10.04907 119.79686 21144 ft 484 kts 253°
2026-04-26 14:04 10.01062 119.66850 18160 ft 468 kts 252°
2026-04-26 14:05 9.97342 119.54491 14882 ft 441 kts 253°
2026-04-26 14:05 9.93920 119.43116 11049 ft 384 kts 253°
2026-04-26 14:05 9.89602 119.34761 9937 ft 305 kts 238°
2026-04-26 14:05 9.85308 119.27545 7345 ft 298 kts 238°
2026-04-26 14:06 9.82420 119.22711 5630 ft 294 kts 238°
2026-04-26 14:06 9.80953 119.20262 4774 ft 289 kts 238°
2026-04-26 14:06 9.79913 119.18526 4159 ft 286 kts 238°
2026-04-26 14:06 9.78885 119.16814 3655 ft 281 kts 239°
2026-04-26 14:07 9.77869 119.15127 3706 ft 283 kts 238°
2026-04-26 14:07 9.76838 119.13415 3706 ft 285 kts 238°
2026-04-26 14:07 9.75057 119.10447 3702 ft 275 kts 238°
2026-04-26 14:07 9.73336 119.07275 3698 ft 241 kts 252°
2026-04-26 14:08 9.72945 119.04936 3610 ft 238 kts 271°
2026-04-26 14:08 9.72992 119.03263 3488 ft 236 kts 275°
2026-04-26 14:08 9.73077 119.01598 3371 ft 237 kts 275°
2026-04-26 14:08 9.73155 118.99930 3256 ft 236 kts 275°
2026-04-26 14:09 9.73227 118.98287 3144 ft 230 kts 275°
2026-04-26 14:09 9.73297 118.96692 3019 ft 223 kts 275°
2026-04-26 14:09 9.73366 118.95147 2899 ft 216 kts 274°
2026-04-26 14:09 9.73432 118.93640 2773 ft 212 kts 274°
2026-04-26 14:10 9.73498 118.92158 2691 ft 205 kts 274°
2026-04-26 14:10 9.73559 118.90755 2527 ft 196 kts 274°
2026-04-26 14:10 9.73619 118.89405 2302 ft 193 kts 274°
2026-04-26 14:10 9.73678 118.88068 2088 ft 182 kts 274°
2026-04-26 14:11 9.73780 118.85739 1637 ft 154 kts 274°
2026-04-26 14:11 9.73827 118.84662 1441 ft 151 kts 274°
2026-04-26 14:11 9.73874 118.83607 1251 ft 149 kts 273°
2026-04-26 14:12 9.73919 118.82563 1068 ft 147 kts 273°
2026-04-26 14:12 9.73965 118.81525 892 ft 147 kts 273°
2026-04-26 14:12 9.74010 118.80486 711 ft 148 kts 272°
2026-04-26 14:12 9.74054 118.79447 485 ft 147 kts 272°
2026-04-26 14:13 9.74143 118.77387 124 ft 143 kts 272°
2026-04-26 14:13 9.74188 118.76391 44 ft 132 kts 273°
2026-04-26 14:13 9.74214 118.75777 61 ft 41 kts 271°
2026-04-26 14:14 9.74225 118.75525 63 ft 34 kts 272°
2026-04-26 14:14 9.74234 118.75317 74 ft 15 kts 273°
2026-04-26 14:14 9.74284 118.75252 75 ft 12 kts 358°
2026-04-26 14:14 9.74369 118.75256 68 ft 13 kts 357°
2026-04-26 14:15 9.74407 118.75186 76 ft 9 kts 271°
2026-04-26 14:15 9.74409 118.75129 76 ft 7 kts 273°
2026-04-26 14:15 9.74411 118.75094 76 ft 4 kts 273°
2026-04-26 14:15 9.74412 118.75074 76 ft 2 kts 273°
2026-04-26 14:16 9.74414 118.75066 74 ft 0 kts 292°
2026-04-26 14:16 9.74441 118.75060 71 ft 5 kts
2026-04-26 14:16 9.74491 118.75064 70 ft 6 kts
2026-04-26 14:16 9.74509 118.75065 74 ft 0 kts